SCP
0 0 0 0 0 0 0 0 0 0 0 0 0 0 0 0 0 0 0 0 0 0 0 0 0 0 0 0 0 0 0 0 0 0 0 0 0 0 0 0 0 0 0
0 0 0 0 0 0 0 0 0 0 0 0 0 0 0 0 0 0 0 0 0 0 0 0 0 0 0 0 0 0 0 0 0 0 0 0 0 0 0 0 0 0 0
0 0 0 0 0 0 0 0 0 0 0 0 0 0 0 0 0 0 0 0 0 0 0 0 0 0 0 0 0 0 0 0 0 0 0 0 0 0 0 0 0 0 0
0 0 0 0 0 0 0 0 0 0 0 0 0 0 0 0 0 0 0 0 0 0 0 0 0 0 0 0 0 0 0 0 0 0 0 0 0 0 0 0 0 0 0
0 0 0 0 0 0 0 0 0 0 0 0 0 0 0 0 0 0 0 0 0 0 0 0 0 0 0 0 0 0 0 0 0 0 0 0 0 0 0 0 0 0 0
0 0 0 0 0 0 0 0 0 0 0 0 0 0 0 0 0 0 0 0 0 0 0 0 0 0 0 0 0 0 0 0 0 0 0 0 0 0 0 0 0 0 0
0 0 0 0 0 0 0 0 0 0 0 0 0 0 0 0 0 0 0 0 0 0 0 0 0 0 0 0 0 0 0 0 0 0 0 0 0 0 0 0 0 0 0
0 0 0 0 0 0 0 0 0 0 0 0 0 0 0 0 0 0 0 0 0 0 0 0 0 0 0 0 0 0 0 0 0 0 0 0 0 0 0 0 0 0 0
0 0 0 0 0 0 0 0 0 0 0 0 0 0 0 0 0 0 0 0 0 0 0 0 0 0 0 0 0 0 0 0 0 0 0 0 0 0 0 0 0 0 0
0 0 0 0 0 0 0 0 0 0 0 0 0 0 0 0 0 0 0 0 0 0 0 0 0 0 0 0 0 0 0 0 0 0 0 0 0 0 0 0 0 0 0
0 0 0 0 0 0 0 0 0 0 0 0 0 0 0 0 0 0 0 0 0 0 0 0 0 0 0 0 0 0 0 0 0 0 0 0 0 0 0 0 0 0 0
0 0 0 0 0 0 0 0 0 0 0 0 0 0 0 0 0 0 0 0 0 0 0 0 0 0 0 0 0 0 0 0 0 0 0 0 0 0 0 0 0 0 0
0 0 0 0 0 0 0 0 0 0 0 0 0 0 0 0 0 0 0 0 0 0 0 0 0 0 0 0 0 0 0 0 0 0 0 0 0 0 0 0 0 0 0
0 0 0 0 0 0 0 0 0 0 0 0 0 0 0 0 0 0 0 0 0 0 0 0 0 0 0 0 0 0 0 0 0 0 0 0 0 0 0 0 0 0 0
0 0 0 0 0 0 0 0 0 0 0 0 0 0 0 0 0 0 0 0 0 0 0 0 0 0 0 0 0 0 0 0 0 0 0 0 0 0 0 0 0 0 0
0 0 0 0 0 0 0 0 0 0 0 0 0 0 0 0 0 0 0 0 0 0 0 0 0 0 0 0 0 0 0 0 0 0 0 0 0 0 0 0 0 0 0
0 0 0 0 0 0 0 0 0 0 0 0 0 0 0 0 0 0 0 0 0 0 0 0 0 0 0 0 0 0 0 0 0 0 0 0 0 0 0 0 0 0 0
0 0 0 0 0 0 0 0 0 0 0 0 0 0 0 0 0 0 0 0 0 0 0 0 0 0 0 0 0 0 0 0 0 0 0 0 0 0 0 0 0 0 0
0 0 0 0 0 0 0 0 0 0 0 0 0 0 0 0 0 0 0 0 0 0 0 0 0 0 0 0 0 0 0 0 0 0 0 0 0 0 0 0 0 0 0
0 0 0 0 0 0 0 0 0 0 0 0 0 0 0 0 0 0 0 0 0 0 0 0 0 0 0 0 0 0 0 0 0 0 0 0 0 0 0 0 0 0 0
0 0 0 0 0 0 0 0 0 0 0 0 0 0 0 0 0 0 0 0 0 0 0 0 0 0 0 0 0 0 0 0 0 0 0 0 0 0 0 0 0 0 0
0 0 0 0 0 0 0 0 0 0 0 0 0 0 0 0 0 0 0 0 0 0 0 0 0 0 0 0 0 0 0 0 0 0 0 0 0 0 0 0 0 0 0
0 0 0 0 0 0 0 0 0 0 0 0 0 0 0 0 0 0 0 0 0 0 0 0 0 0 0 0 0 0 0 0 0 0 0 0 0 0 0 0 0 0 -0
0 0 0 0 0 0 0 0 0 0 0 0 0 0 0 0 0 0 0 0 0 0 0 0 0 0 0 0 0 0 0 0 0 0 0 0 0 0 0 0 0 -0 0
0 0 0 0 0 0 0 0 0 0 0 0 0 0 0 0 0 0 0 0 0 0 0 0 0 0 0 0 0 0 0 0 0 0 0 0 0 0 0 -0 -0 -0 -0
0 0 0 0 0 0 0 0 0 0 0 0 0 0 0 0 0 0 0 0 0 0 0 0 0 0 0 0 0 0 0 0 0 0 0 0 0 0 -0 0 -0 -0 -0
Wind_Speed_500mb
83 81 80 83 77 78 76 74 73 75 81 87 83 76 69 61 54 46 39 33 29 24 19 15 11 10 13 16 18 19 21 24 30 33 35 38 44 47 51 55 59 62 63
82 81 82 84 79 79 80 77 77 81 85 89 84 77 69 61 54 48 42 37 32 27 22 19 15 14 16 20 21 21 23 28 34 41 45 47 52 53 57 61 64 68 69
84 83 85 87 85 85 83 80 81 84 90 91 86 78 69 62 55 49 42 37 33 30 25 22 20 19 21 23 24 26 28 31 37 47 52 55 60 62 64 66 69 72 75
84 86 89 92 89 86 83 82 84 87 92 92 85 77 70 62 56 50 46 41 37 33 31 28 26 25 26 28 30 31 35 38 42 49 55 59 62 65 67 72 76 77 81
86 89 92 92 90 86 85 84 86 90 94 91 85 78 71 64 57 52 48 43 36 41 39 36 34 32 33 35 37 37 42 45 48 53 59 62 65 67 67 71 76 81 83
86 90 91 92 93 92 90 88 87 92 95 94 87 80 73 66 58 54 48 42 43 52 47 43 40 40 40 42 44 45 48 50 52 57 61 65 67 65 65 69 73 73 85
84 88 92 95 97 95 90 88 89 93 96 95 89 81 73 65 58 53 52 49 47 59 53 50 47 47 47 49 48 51 55 56 59 61 66 68 68 63 65 65 63 68 81
83 87 91 96 97 95 91 88 88 92 95 92 86 79 71 62 57 54 59 63 54 64 60 56 54 54 54 53 54 58 59 61 60 60 66 67 64 59 54 59 65 74 85
77 84 87 91 95 92 87 85 86 90 91 87 81 74 67 59 61 61 72 59 60 67 65 60 61 60 57 56 62 64 65 68 63 63 67 68 54 45 53 64 63 70 86
64 71 77 83 85 83 81 80 82 83 81 77 70 66 63 58 60 68 68 65 65 69 66 66 64 64 62 61 64 67 73 73 68 69 67 63 59 58 53 53 59 69 71
47 51 57 64 69 70 70 73 74 72 65 64 67 61 54 58 65 72 60 68 66 70 70 67 67 65 63 64 67 72 75 71 72 71 70 68 66 62 56 58 62 63 66
24 29 36 47 57 60 58 55 59 66 65 56 58 51 54 63 75 61 61 63 68 72 72 71 71 65 67 68 69 71 70 67 66 67 69 71 68 67 67 67 66 64 64
11 15 22 31 40 51 59 61 57 60 60 62 55 58 64 74 69 58 60 64 68 73 73 70 69 72 72 73 72 65 54 55 60 67 71 73 69 67 72 71 67 66 68
16 13 14 22 33 45 52 58 61 64 61 60 61 59 62 55 56 58 60 63 66 68 68 73 73 71 71 72 71 63 56 56 61 67 70 68 68 70 72 71 69 68 72
17 16 16 17 20 24 30 35 39 39 39 40 40 45 51 52 47 49 54 58 58 59 60 63 64 66 67 64 62 62 61 56 58 60 63 67 68 69 72 72 65 66 70
13 14 15 18 22 27 30 35 37 37 40 42 43 45 45 47 49 51 53 55 56 53 54 57 57 57 57 57 58 59 58 59 61 63 66 68 68 66 65 64 62 63 68
15 11 10 11 14 18 23 28 31 36 40 41 43 44 46 48 50 52 52 52 53 48 45 46 48 50 50 51 55 60 66 70 73 73 70 68 61 59 60 62 63 61 61
8 7 8 10 13 17 21 26 31 34 33 35 38 45 47 48 44 44 44 42 35 35 37 43 49 54 59 63 66 68 70 70 69 67 62 59 58 58 59 59 57 55 54
7 11 14 18 21 24 26 28 30 34 37 39 40 40 38 39 43 40 35 34 37 40 42 44 45 48 52 56 61 64 64 63 59 55 51 48 47 50 53 53 51 49 46
12 16 18 20 22 25 28 29 32 33 35 37 36 38 39 38 37 35 35 35 36 37 39 41 43 46 50 52 53 54 52 49 45 43 42 42 41 42 44 43 44 43 39
14 15 18 18 19 22 23 24 25 27 28 30 31 33 35 32 32 31 32 34 35 37 40 41 41 41 44 45 45 45 44 40 38 39 40 40 40 41 39 40 41 39 36
13 13 13 13 14 15 17 18 19 21 23 25 28 32 32 28 29 30 32 34 35 36 38 37 37 36 36 38 39 38 38 36 34 36 37 36 36 36 36 37 36 35 34
10 10 11 11 12 14 15 17 19 21 23 25 26 29 30 29 30 31 33 34 33 33 35 35 34 33 34 36 38 38 38 35 35 36 36 34 34 33 34 35 33 32 32
9 10 11 13 14 16 17 19 21 23 24 25 27 29 32 33 33 33 33 33 33 33 34 35 36 36 35 36 37 38 39 37 37 35 35 33 31 29 31 33 32 34 34
13 14 15 16 17 18 20 21 23 25 27 29 32 33 35 35 34 33 33 34 34 35 35 36 38 39 38 38 38 38 38 37 37 36 34 33 32 30 31 33 33 33 33
12 14 16 18 20 23 25 28 31 33 35 37 38 38 37 36 34 33 34 35 36 35 35 36 38 40 39 37 36 37 36 35 35 36 36 34 32 31 32 31 31 32 31
Wind_Direction_500mb
229 226 222 218 222 224 225 225 224 220 212 207 204 203 204 204 205 207 206 208 206 207 206 215 226 237 247 255 265 276 287 294 300 305 307 308 310 314 317 319 320 323 326
231 229 226 222 222 224 225 224 224 220 213 209 207 206 206 207 209 209 211 210 211 210 214 221 229 241 251 260 267 278 289 296 303 306 306 307 308 313 315 316 317 319 322
232 230 227 225 223 224 226 226 226 220 214 210 209 209 209 211 211 212 213 215 214 218 226 230 236 247 258 264 270 280 286 295 302 304 307 309 311 314 314 313 315 317 319
232 232 230 229 226 226 228 228 226 219 215 212 211 212 213 212 213 215 215 215 219 226 234 237 243 253 263 270 273 278 284 292 298 301 303 307 308 312 312 313 313 317 318
234 234 233 230 228 228 228 227 223 219 215 214 214 214 214 214 216 218 220 222 229 243 238 241 248 256 265 274 277 278 281 289 293 297 299 303 306 310 313 315 315 314 316
237 236 235 231 228 227 227 225 222 219 215 215 215 217 216 215 217 220 222 226 245 243 242 247 251 259 268 277 278 278 281 285 289 291 296 299 305 308 311 312 312 311 320
242 238 235 232 229 228 228 226 223 219 216 215 216 217 217 219 220 221 227 237 243 243 245 249 254 263 270 276 279 280 283 286 289 291 294 297 302 306 306 305 305 311 311
243 239 235 232 230 229 227 225 224 220 217 217 218 218 219 219 223 230 229 254 243 244 248 252 259 265 271 275 279 279 281 282 283 284 288 292 293 298 300 297 303 307 307
244 240 236 232 229 227 227 225 222 219 218 219 221 220 218 227 228 234 238 251 245 246 250 255 261 267 272 275 276 280 282 281 282 284 285 288 294 281 274 288 296 306 311
247 243 238 233 230 227 225 225 223 221 222 221 220 221 227 230 232 240 247 253 252 250 254 257 261 268 272 273 276 280 280 284 287 285 284 285 287 289 290 294 301 308 309
249 246 241 234 230 227 225 223 223 220 220 221 220 231 225 231 236 243 253 254 253 257 258 261 266 269 274 277 278 279 281 284 285 285 289 293 295 297 296 297 304 306 307
247 244 236 227 223 223 222 225 225 223 218 227 229 228 230 231 241 251 253 249 255 257 262 265 268 273 273 275 276 278 279 280 283 286 286 288 291 295 296 297 301 305 305
159 192 208 214 216 218 219 219 218 219 229 238 231 235 231 237 250 254 247 249 253 261 264 269 274 274 278 281 282 282 279 273 270 271 278 286 292 292 292 295 297 304 304
111 142 176 203 214 221 225 226 228 230 228 227 233 237 247 249 249 246 249 251 255 258 262 268 274 278 280 282 285 287 283 281 279 283 287 290 290 289 291 291 293 301 303
162 168 178 183 188 200 209 218 221 225 234 243 249 250 252 254 254 253 251 253 257 260 261 263 267 272 276 278 279 280 281 278 280 282 283 285 286 286 286 287 290 298 299
171 182 196 209 213 217 222 226 230 232 234 238 241 243 245 248 250 253 255 259 262 264 266 269 269 269 272 276 279 282 284 287 290 291 290 289 288 287 284 284 289 295 296
130 141 161 189 207 220 225 229 232 229 232 237 239 245 248 252 256 259 263 267 273 275 270 274 276 280 280 281 283 287 290 292 293 293 292 292 288 283 283 285 290 291 292
164 180 201 216 227 232 235 236 236 238 241 242 247 252 255 257 262 267 274 276 269 268 267 266 268 273 278 283 288 293 295 297 297 297 295 293 287 284 283 284 287 290 292
257 261 260 259 257 255 250 247 245 245 247 249 252 259 261 266 270 272 268 267 271 274 274 275 279 284 288 292 295 296 297 299 300 299 298 297 292 284 282 284 287 288 292
274 274 273 271 267 263 259 256 254 253 253 254 254 255 257 261 265 268 272 274 275 277 280 284 289 294 297 298 299 301 304 306 307 305 303 300 297 294 291 289 288 290 291
280 276 273 272 269 265 262 259 257 256 254 253 254 256 258 262 267 269 271 273 278 283 287 293 298 301 303 305 306 308 311 311 309 307 304 300 295 293 292 291 291 291 290
305 299 294 287 279 272 268 264 259 256 253 251 251 254 264 261 261 264 270 275 281 287 293 300 304 305 304 304 305 309 309 310 308 304 302 300 296 294 294 292 291 290 288
310 298 288 279 272 268 264 259 256 253 252 252 255 257 262 265 269 273 277 281 287 292 298 300 301 303 303 304 306 308 308 308 305 303 300 296 294 295 293 292 291 288 290
327 316 306 298 290 284 279 276 272 268 263 260 261 265 270 274 277 279 282 286 292 294 294 296 298 301 301 300 301 302 303 303 302 300 296 296 294 292 290 289 288 289 288
325 316 307 298 291 284 277 273 270 269 270 273 275 275 276 276 278 281 284 287 288 289 291 294 295 296 296 296 294 293 295 297 296 293 291 290 292 292 289 288 288 286 286
313 309 304 300 296 291 289 287 285 283 281 280 278 277 276 278 279 281 281 282 284 288 290 290 291 291 291 292 293 294 295 294 291 288 287 286 288 288 287 286 284 284 284
Wind_Speed_850mb
83 81 80 83 77 78 76 74 73 75 81 87 83 76 69 61 54 46 39 33 29 24 19 15 11 10 13 16 18 19 21 24 30 33 35 38 44 47 51 55 59 62 63
82 81 82 84 79 79 80 77 77 81 85 89 84 77 69 61 54 48 42 37 32 27 22 19 15 14 16 20 21 21 23 28 34 41 45 47 52 53 57 61 64 68 69
84 83 85 87 85 85 83 80 81 84 90 91 86 78 69 62 55 49 42 37 33 30 25 22 20 19 21 23 24 26 28 31 37 47 52 55 60 62 64 66 69 72 75
84 86 89 92 89 86 83 82 84 87 92 92 85 77 70 62 56 50 46 41 37 33 31 28 26 25 26 28 30 31 35 38 42 49 55 59 62 65 67 72 76 77 81
86 89 92 92 90 86 85 84 86 90 94 91 85 78 71 64 57 52 48 43 36 41 39 36 34 32 33 35 37 37 42 45 48 53 59 62 65 67 67 71 76 81 83
86 90 91 92 93 92 90 88 87 92 95 94 87 80 73 66 58 54 48 42 43 52 47 43 40 40 40 42 44 45 48 50 52 57 61 65 67 65 65 69 73 73 85
84 88 92 95 97 95 90 88 89 93 96 95 89 81 73 65 58 53 52 49 47 59 53 50 47 47 47 49 48 51 55 56 59 61 66 68 68 63 65 65 63 68 81
83 87 91 96 97 95 91 88 88 92 95 92 86 79 71 62 57 54 59 63 54 64 60 56 54 54 54 53 54 58 59 61 60 60 66 67 64 59 54 59 65 74 85
77 84 87 91 95 92 87 85 86 90 91 87 81 74 67 59 61 61 72 59 60 67 65 60 61 60 57 56 62 64 65 68 63 63 67 68 54 45 53 64 63 70 86
64 71 77 83 85 83 81 80 82 83 81 77 70 66 63 58 60 68 68 65 65 69 66 66 64 64 62 61 64 67 73 73 68 69 67 63 59 58 53 53 59 69 71
47 51 57 64 69 70 70 73 74 72 65 64 67 61 54 58 65 72 60 68 66 70 70 67 67 65 63 64 67 72 75 71 72 71 70 68 66 62 56 58 62 63 66
24 29 36 47 57 60 58 55 59 66 65 56 58 51 54 63 75 61 61 63 68 72 72 71 71 65 67 68 69 71 70 67 66 67 69 71 68 67 67 67 66 64 64
11 15 22 31 40 51 59 61 57 60 60 62 55 58 64 74 69 58 60 64 68 73 73 70 69 72 72 73 72 65 54 55 60 67 71 73 69 67 72 71 67 66 68
16 13 14 22 33 45 52 58 61 64 61 60 61 59 62 55 56 58 60 63 66 68 68 73 73 71 71 72 71 63 56 56 61 67 70 68 68 70 72 71 69 68 72
17 16 16 17 20 24 30 35 39 39 39 40 40 45 51 52 47 49 54 58 58 59 60 63 64 66 67 64 62 62 61 56 58 60 63 67 68 69 72 72 65 66 70
13 14 15 18 22 27 30 35 37 37 40 42 43 45 45 47 49 51 53 55 56 53 54 57 57 57 57 57 58 59 58 59 61 63 66 68 68 66 65 64 62 63 68
15 11 10 11 14 18 23 28 31 36 40 41 43 44 46 48 50 52 52 52 53 48 45 46 48 50 50 51 55 60 66 70 73 73 70 68 61 59 60 62 63 61 61
8 7 8 10 13 17 21 26 31 34 33 35 38 45 47 48 44 44 44 42 35 35 37 43 49 54 59 63 66 68 70 70 69 67 62 59 58 58 59 59 57 55 54
7 11 14 18 21 24 26 28 30 34 37 39 40 40 38 39 43 40 35 34 37 40 42 44 45 48 52 56 61 64 64 63 59 55 51 48 47 50 53 53 51 49 46
12 16 18 20 22 25 28 29 32 33 35 37 36 38 39 38 37 35 35 35 36 37 39 41 43 46 50 52 53 54 52 49 45 43 42 42 41 42 44 43 44 43 39
14 15 18 18 19 22 23 24 25 27 28 30 31 33 35 32 32 31 32 34 35 37 40 41 41 41 44 45 45 45 44 40 38 39 40 40 40 41 39 40 41 39 36
13 13 13 13 14 15 17 18 19 21 23 25 28 32 32 28 29 30 32 34 35 36 38 37 37 36 36 38 39 38 38 36 34 36 37 36 36 36 36 37 36 35 34
10 10 11 11 12 14 15 17 19 21 23 25 26 29 30 29 30 31 33 34 33 33 35 35 34 33 34 36 38 38 38 35 35 36 36 34 34 33 34 35 33 32 32
9 10 11 13 14 16 17 19 21 23 24 25 27 29 32 33 33 33 33 33 33 33 34 35 36 36 35 36 37 38 39 37 37 35 35 33 31 29 31 33 32 34 34
13 14 15 16 17 18 20 21 23 25 27 29 32 33 35 35 34 33 33 34 34 35 35 36 38 39 38 38 38 38 38 37 37 36 34 33 32 30 31 33 33 33 33
12 14 16 18 20 23 25 28 31 33 35 37 38 38 37 36 34 33 34 35 36 35 35 36 38 40 39 37 36 37 36 35 35 36 36 34 32 31 32 31 31 32 31
Wind_Direction_850mb
229 226 222 218 222 224 225 225 224 220 212 207 204 203 204 204 205 207 206 208 206 207 206 215 226 237 247 255 265 276 287 294 300 305 307 308 310 314 317 319 320 323 326
231 229 226 222 222 224 225 224 224 220 213 209 207 206 206 207 209 209 211 210 211 210 214 221 229 241 251 260 267 278 289 296 303 306 306 307 308 313 315 316 317 319 322
232 230 227 225 223 224 226 226 226 220 214 210 209 209 209 211 211 212 213 215 214 218 226 230 236 247 258 264 270 280 286 295 302 304 307 309 311 314 314 313 315 317 319
232 232 230 229 226 226 228 228 226 219 215 212 211 212 213 212 213 215 215 215 219 226 234 237 243 253 263 270 273 278 284 292 298 301 303 307 308 312 312 313 313 317 318
234 234 233 230 228 228 228 227 223 219 215 214 214 214 214 214 216 218 220 222 229 243 238 241 248 256 265 274 277 278 281 289 293 297 299 303 306 310 313 315 315 314 316
237 236 235 231 228 227 227 225 222 219 215 215 215 217 216 215 217 220 222 226 245 243 242 247 251 259 268 277 278 278 281 285 289 291 296 299 305 308 311 312 312 311 320
242 238 235 232 229 228 228 226 223 219 216 215 216 217 217 219 220 221 227 237 243 243 245 249 254 263 270 276 279 280 283 286 289 291 294 297 302 306 306 305 305 311 311
243 239 235 232 230 229 227 225 224 220 217 217 218 218 219 219 223 230 229 254 243 244 248 252 259 265 271 275 279 279 281 282 283 284 288 292 293 298 300 297 303 307 307
244 240 236 232 229 227 227 225 222 219 218 219 221 220 218 227 228 234 238 251 245 246 250 255 261 267 272 275 276 280 282 281 282 284 285 288 294 281 274 288 296 306 311
247 243 238 233 230 227 225 225 223 221 222 221 220 221 227 230 232 240 247 253 252 250 254 257 261 268 272 273 276 280 280 284 287 285 284 285 287 289 290 294 301 308 309
249 246 241 234 230 227 225 223 223 220 220 221 220 231 225 231 236 243 253 254 253 257 258 261 266 269 274 277 278 279 281 284 285 285 289 293 295 297 296 297 304 306 307
247 244 236 227 223 223 222 225 225 223 218 227 229 228 230 231 241 251 253 249 255 257 262 265 268 273 273 275 276 278 279 280 283 286 286 288 291 295 296 297 301 305 305
159 192 208 214 216 218 219 219 218 219 229 238 231 235 231 237 250 254 247 249 253 261 264 269 274 274 278 281 282 282 279 273 270 271 278 286 292 292 292 295 297 304 304
111 142 176 203 214 221 225 226 228 230 228 227 233 237 247 249 249 246 249 251 255 258 262 268 274 278 280 282 285 287 283 281 279 283 287 290 290 289 291 291 293 301 303
162 168 178 183 188 200 209 218 221 225 234 243 249 250 252 254 254 253 251 253 257 260 261 263 267 272 276 278 279 280 281 278 280 282 283 285 286 286 286 287 290 298 299
171 182 196 209 213 217 222 226 230 232 234 238 241 243 245 248 250 253 255 259 262 264 266 269 269 269 272 276 279 282 284 287 290 291 290 289 288 287 284 284 289 295 296
130 141 161 189 207 220 225 229 232 229 232 237 239 245 248 252 256 259 263 267 273 275 270 274 276 280 280 281 283 287 290 292 293 293 292 292 288 283 283 285 290 291 292
164 180 201 216 227 232 235 236 236 238 241 242 247 252 255 257 262 267 274 276 269 268 267 266 268 273 278 283 288 293 295 297 297 297 295 293 287 284 283 284 287 290 292
257 261 260 259 257 255 250 247 245 245 247 249 252 259 261 266 270 272 268 267 271 274 274 275 279 284 288 292 295 296 297 299 300 299 298 297 292 284 282 284 287 288 292
274 274 273 271 267 263 259 256 254 253 253 254 254 255 257 261 265 268 272 274 275 277 280 284 289 294 297 298 299 301 304 306 307 305 303 300 297 294 291 289 288 290 291
280 276 273 272 269 265 262 259 257 256 254 253 254 256 258 262 267 269 271 273 278 283 287 293 298 301 303 305 306 308 311 311 309 307 304 300 295 293 292 291 291 291 290
305 299 294 287 279 272 268 264 259 256 253 251 251 254 264 261 261 264 270 275 281 287 293 300 304 305 304 304 305 309 309 310 308 304 302 300 296 294 294 292 291 290 288
310 298 288 279 272 268 264 259 256 253 252 252 255 257 262 265 269 273 277 281 287 292 298 300 301 303 303 304 306 308 308 308 305 303 300 296 294 295 293 292 291 288 290
327 316 306 298 290 284 279 276 272 268 263 260 261 265 270 274 277 279 282 286 292 294 294 296 298 301 301 300 301 302 303 303 302 300 296 296 294 292 290 289 288 289 288
325 316 307 298 291 284 277 273 270 269 270 273 275 275 276 276 278 281 284 287 288 289 291 294 295 296 296 296 294 293 295 297 296 293 291 290 292 292 289 288 288 286 286
313 309 304 300 296 291 289 287 285 283 281 280 278 277 276 278 279 281 281 282 284 288 290 290 291 291 291 292 293 294 295 294 291 288 287 286 288 288 287 286 284 284 284